Content
SEND FEEDBACK

Daily
Averages
Monthly
Summary
United States of America

YARMOUTH, MASSACHUSETTS


Home > North America > United States > Massachusetts
Elevation: 52 feet     Latitude: 41 40N     Longitude: 070 16W

WEATHER
 
SELECT A DAY
Number of Records: 207,250;   Date Range: 1/1/95 - 8/12/14
 
SHARE

PRINT THIS DATA

[ ← Previous Day ]
WEATHER ALMANAC - MARCH 31, 2013
[ Next Day → ]
[ °C ]   °F
Weather ElementAverageHighLow
Temperature42.9 °F53.1 °F (1:56 pm)27 °F (5:56 am)
Dewpoint33.9 °F44.1 °F (11:56 pm)25 °F (4:56 am)
Humidity72.5 %93 % (11:56 pm)44 % (9:56 am)
Barometer30.04 in30.12 in (6:56 am)29.75 in (11:56 pm)
Wind Speed6.5 mph16.1 mph (10:56 pm)
Wind Gust25.3 mph (10:56 pm)
Weather ElementAverage
Visibility9.8 mi
Wind DirectionESE (122.6 °)

Weather ElementTotal
Precipitation0.05 in
Heating Degree Days25 (Base 65)
Averaged from 23 records on March 31, 2013
WEATHER CONDITIONS BREAKOUT
WIND DIRECTION BREAKOUT
WEATHER BY HOUR - MARCH 31, 2013
[ °C ]   °F
Local TimeTemperatureDewpointHumidityBarometerVisibilityWind DirectionWind SpeedGust SpeedPrecipitationEventsConditions
1:56 AM28.9 °F27.0 °F92 %30.10 in10.0 miCalmClear
2:56 AM30.0 °F28.0 °F92 %30.10 in10.0 miCalmClear
3:56 AM28.9 °F26.1 °F89 %30.09 in10.0 miCalmClear
4:56 AM28.0 °F25.0 °F88 %30.11 in10.0 miCalmClear
5:56 AM27.0 °F25.0 °F92 %30.11 in10.0 miCalmClear
6:56 AM27.0 °F25.0 °F92 %30.12 in10.0 miCalmClear
7:56 AM37.0 °F32.0 °F82 %30.12 in10.0 miCalmClear
8:56 AM46.0 °F30.9 °F56 %30.12 in10.0 miSW (220°)4.6 mphClear
9:56 AM51.1 °F30.0 °F44 %30.11 in10.0 miSouth (180°)4.6 mphClear
10:56 AM48.9 °F30.9 °F50 %30.12 in10.0 miSouth (190°)8.1 mphClear
11:56 AM51.1 °F33.1 °F50 %30.11 in10.0 miSouth (190°)8.1 mphClear
12:56 PM48.9 °F39.9 °F71 %30.09 in10.0 miSouth (170°)9.2 mphClear
1:56 PM53.1 °F37.9 °F57 %30.07 in10.0 miSSW (200°)9.2 mphClear
2:56 PM50.0 °F39.0 °F66 %30.06 in10.0 miSSW (200°)11.5 mphClear
3:56 PM50.0 °F37.9 °F63 %30.03 in10.0 miSSW (200°)10.4 mphClear
4:56 PM50.0 °F37.0 °F61 %30.02 in10.0 miSouth (190°)9.2 mphClear
5:56 PM48.0 °F39.9 °F74 %30.01 in10.0 miSouth (180°)5.8 mphClear
6:56 PM48.0 °F39.9 °F74 %29.99 in10.0 miSouth (170°)6.9 mphOvercast
7:56 PM46.9 °F37.0 °F68 %29.97 in10.0 miSSE (160°)8.1 mphScattered Clouds
8:56 PM48.0 °F36.0 °F63 %29.94 in10.0 miSSE (160°)11.5 mphMostly Cloudy
9:56 PM48.0 °F37.9 °F68 %29.89 in10.0 miSE (140°)13.8 mph23.0 mphOvercast
10:56 PM46.0 °F41.0 °F83 %29.83 in10.0 miSE (140°)16.1 mph25.3 mph0.01 inRainLight Rain
11:56 PM46.0 °F44.1 °F93 %29.75 in6.0 miSE (130°)12.7 mph21.9 mph0.04 inRainLight Rain
Hourly data recorded from KHYA, located miles away from Yarmouth, Massachusetts







STORIES FROM OUR PARTNERS